TimeCST,TemperatureF,Dew PointF,Humidity,Sea Level PressureIn,VisibilityMPH,Wind Direction,Wind SpeedMPH,Gust SpeedMPH,PrecipitationIn,Events,Conditions,WindDirDegrees,DateUTC
12:15 AM,19.4,17.6,93,30.36,10.0,Calm,Calm,-,N/A,,Clear,0,2013-03-07 06:15:00
12:35 AM,19.8,17.6,91,30.36,10.0,Calm,Calm,-,N/A,,Clear,0,2013-03-07 06:35:00
12:55 AM,19.4,17.6,93,30.36,7.0,Calm,Calm,-,N/A,,Clear,0,2013-03-07 06:55:00
1:15 AM,19.2,17.4,93,30.37,7.0,Calm,Calm,-,N/A,,Clear,0,2013-03-07 07:15:00
1:35 AM,19.4,17.6,93,30.37,7.0,Calm,Calm,-,N/A,,Clear,0,2013-03-07 07:35:00
1:55 AM,17.8,16.0,93,30.38,5.0,Calm,Calm,-,N/A,,Clear,0,2013-03-07 07:55:00
2:15 AM,17.4,15.8,93,30.37,5.0,Calm,Calm,-,N/A,,Scattered Clouds,0,2013-03-07 08:15:00
2:35 AM,17.6,16.0,93,30.37,5.0,Calm,Calm,-,N/A,,Scattered Clouds,0,2013-03-07 08:35:00
2:55 AM,18.5,16.9,93,30.35,7.0,Calm,Calm,-,N/A,,Clear,0,2013-03-07 08:55:00
3:15 AM,18.1,16.3,93,30.34,7.0,ENE,3.5,-,N/A,,Clear,70,2013-03-07 09:15:00
3:35 AM,17.6,16.0,93,30.35,7.0,Calm,Calm,-,N/A,,Clear,0,2013-03-07 09:35:00
3:55 AM,17.6,15.8,93,30.35,7.0,East,3.5,-,N/A,,Clear,80,2013-03-07 09:55:00
4:15 AM,17.2,15.4,93,30.35,7.0,Calm,Calm,-,N/A,,Clear,0,2013-03-07 10:15:00
4:35 AM,17.6,15.8,93,30.36,7.0,ENE,3.5,-,N/A,,Clear,70,2013-03-07 10:35:00
4:55 AM,16.7,14.9,93,30.34,5.0,East,3.5,-,N/A,,Clear,100,2013-03-07 10:55:00
5:15 AM,15.8,14.0,93,30.35,5.0,ESE,4.6,-,N/A,,Clear,110,2013-03-07 11:15:00
5:35 AM,15.4,13.6,93,30.35,5.0,ESE,3.5,-,N/A,,Clear,120,2013-03-07 11:35:00
5:55 AM,15.4,13.8,93,30.35,4.0,ESE,4.6,-,N/A,,Clear,110,2013-03-07 11:55:00
6:15 AM,15.4,13.6,93,30.36,4.0,Calm,Calm,-,N/A,,Clear,0,2013-03-07 12:15:00
6:35 AM,15.4,13.6,93,30.36,4.0,ESE,4.6,-,N/A,,Clear,120,2013-03-07 12:35:00
6:55 AM,15.6,13.8,93,30.37,2.5,ESE,3.5,-,N/A,,Mist,120,2013-03-07 12:55:00
7:15 AM,15.8,14.0,93,30.37,2.5,Calm,Calm,-,N/A,,Mist,0,2013-03-07 13:15:00
7:35 AM,17.4,15.6,93,30.38,3.0,Calm,Calm,-,N/A,,Mist,0,2013-03-07 13:35:00
7:55 AM,19.0,17.4,93,30.39,3.0,ESE,3.5,-,N/A,,Mist,110,2013-03-07 13:55:00
8:15 AM,19.9,18.1,93,30.38,3.0,SE,5.8,-,N/A,,Mist,130,2013-03-07 14:15:00
8:35 AM,21.7,19.9,93,30.39,4.0,SE,4.6,-,N/A,,Clear,130,2013-03-07 14:35:00
8:55 AM,23.0,20.7,91,30.38,4.0,ESE,5.8,-,N/A,,Scattered Clouds,120,2013-03-07 14:55:00
9:15 AM,23.2,20.1,88,30.39,5.0,ESE,4.6,-,N/A,,Mostly Cloudy,110,2013-03-07 15:15:00
9:35 AM,23.9,20.8,88,30.38,4.0,SE,6.9,-,N/A,,Overcast,140,2013-03-07 15:35:00
9:55 AM,24.6,20.7,85,30.38,4.0,SSE,6.9,-,N/A,,Mostly Cloudy,150,2013-03-07 15:55:00
10:15 AM,24.8,20.3,83,30.39,4.0,South,6.9,-,N/A,,Haze,170,2013-03-07 16:15:00
10:35 AM,25.3,20.3,81,30.38,4.0,SSE,8.1,-,N/A,,Haze,160,2013-03-07 16:35:00
10:55 AM,26.1,20.5,79,30.37,4.0,SSE,8.1,-,N/A,,Haze,160,2013-03-07 16:55:00
11:15 AM,26.4,20.8,79,30.37,4.0,SSE,8.1,-,N/A,,Haze,160,2013-03-07 17:15:00
11:35 AM,27.5,21.0,77,30.36,5.0,SSE,8.1,-,N/A,,Haze,160,2013-03-07 17:35:00
11:55 AM,28.2,21.6,76,30.36,5.0,ESE,8.1,-,N/A,,Haze,120,2013-03-07 17:55:00
12:15 PM,28.8,21.7,75,30.36,5.0,ESE,8.1,-,N/A,,Haze,110,2013-03-07 18:15:00
12:35 PM,29.3,21.9,74,30.35,4.0,ESE,9.2,-,N/A,,Haze,110,2013-03-07 18:35:00
12:55 PM,29.8,21.9,72,30.34,5.0,ESE,9.2,-,N/A,,Haze,110,2013-03-07 18:55:00
1:15 PM,30.4,21.7,70,30.33,7.0,East,8.1,-,N/A,,Clear,100,2013-03-07 19:15:00
1:35 PM,30.6,21.2,68,30.32,7.0,ESE,10.4,-,N/A,,Clear,110,2013-03-07 19:35:00
1:55 PM,30.9,22.5,71,30.31,7.0,ESE,9.2,-,N/A,,Clear,110,2013-03-07 19:55:00
2:15 PM,31.5,22.3,69,30.31,7.0,ESE,9.2,-,N/A,,Clear,120,2013-03-07 20:15:00
2:35 PM,32.0,22.8,69,30.31,10.0,ESE,8.1,-,N/A,,Clear,110,2013-03-07 20:35:00
2:55 PM,32.0,23.4,70,30.31,7.0,East,9.2,-,N/A,,Clear,100,2013-03-07 20:55:00
3:15 PM,32.2,23.4,70,30.31,7.0,East,11.5,-,N/A,,Clear,100,2013-03-07 21:15:00
3:35 PM,32.0,23.2,70,30.30,7.0,East,10.4,-,N/A,,Clear,100,2013-03-07 21:35:00
3:55 PM,32.0,22.8,69,30.30,7.0,ESE,11.5,-,N/A,,Clear,110,2013-03-07 21:55:00
4:15 PM,32.4,23.0,68,30.29,7.0,East,10.4,-,N/A,,Clear,100,2013-03-07 22:15:00
4:35 PM,32.2,23.0,69,30.29,10.0,ESE,10.4,-,N/A,,Clear,110,2013-03-07 22:35:00
4:55 PM,32.4,23.0,68,30.29,10.0,ESE,11.5,17.3,N/A,,Clear,110,2013-03-07 22:55:00
5:15 PM,32.0,23.0,69,30.29,7.0,East,10.4,16.1,N/A,,Clear,100,2013-03-07 23:15:00
5:35 PM,31.6,23.0,70,30.29,10.0,ESE,10.4,-,N/A,,Clear,110,2013-03-07 23:35:00
5:55 PM,31.1,23.0,72,30.31,10.0,ESE,8.1,-,N/A,,Clear,110,2013-03-07 23:55:00
7:35 PM,28.2,23.0,81,30.31,7.0,ESE,9.2,-,N/A,,Clear,110,2013-03-08 01:35:00
7:55 PM,27.9,22.8,81,30.30,7.0,ESE,11.5,-,N/A,,Clear,110,2013-03-08 01:55:00
8:15 PM,27.5,22.6,82,30.30,7.0,ESE,11.5,-,N/A,,Clear,120,2013-03-08 02:15:00
8:35 PM,27.3,22.1,81,30.30,7.0,ESE,8.1,-,N/A,,Clear,120,2013-03-08 02:35:00
8:55 PM,27.1,21.9,81,30.30,7.0,ESE,8.1,-,N/A,,Clear,110,2013-03-08 02:55:00
9:15 PM,27.1,21.9,81,30.31,7.0,ESE,9.2,-,N/A,,Clear,120,2013-03-08 03:15:00
9:35 PM,27.0,21.7,81,30.32,7.0,ESE,9.2,-,N/A,,Clear,120,2013-03-08 03:35:00
9:55 PM,27.0,21.7,81,30.32,7.0,ESE,8.1,-,N/A,,Clear,120,2013-03-08 03:55:00
10:15 PM,26.6,21.2,80,30.33,7.0,ESE,6.9,-,N/A,,Clear,120,2013-03-08 04:15:00
10:35 PM,26.4,21.4,81,30.33,7.0,ESE,8.1,-,N/A,,Clear,120,2013-03-08 04:35:00
10:55 PM,26.2,21.2,81,30.32,7.0,ESE,6.9,-,N/A,,Clear,110,2013-03-08 04:55:00
11:15 PM,26.2,21.4,82,30.32,7.0,ESE,9.2,-,N/A,,Clear,110,2013-03-08 05:15:00
11:35 PM,26.1,21.2,82,30.32,7.0,ESE,9.2,-,N/A,,Clear,110,2013-03-08 05:35:00
11:55 PM,26.2,21.7,83,30.31,7.0,ESE,9.2,-,N/A,,Clear,120,2013-03-08 05:55:00